Regional Weather Roundup
Issued by NWS

Current Version | Previous Version | Text Only | Print | Product List | Glossary On
Versions: 1 2 3 4 5 6 7 8 9 10 11 12 13 14 15 16 17 18 19 20 21 22 23 24 25 26 27 28 29 30 31 32 33 34 35 36 37 38 39 40 41 42 43 44 45 46 47 48 49 50
000
ASCA42 TJSJ 201610
RWRPR
PUERTO RICO/U.S. VIRGIN ISLANDS HOURLY WEATHER ROUNDUP
NATIONAL WEATHER SERVICE SAN JUAN PR
1200 PM AST MON NOV 20 2017

PRZ001>002-007>008-010-201700-
PUERTO RICO

CITY           SKY/WX    TMP DP  RH WIND       PRES   REMARKS
SAN JUAN LMM   PTSUNNY   84  79  84 N9        29.93F HX  96
AGUADILLA      CLOUDY    91  73  55 N5        29.95F HX 100
$$

VIZ001>002-201700-
U.S. VIRGIN ISLANDS

CITY           SKY/WX    TMP DP  RH WIND       PRES   REMARKS
CHARLOTTE AMA    N/A    N/A N/A N/A MISG      29.93F
$$

HOURLY WEATHER ROUNDUP FOR THE NEWS MEDIA

CITY           SKY/WX    TMP DP  RH WIND       PRES   REMARKS
ORLANDO        SUNNY     73  55  53 NE10      30.14S
NEW YORK       PTSUNNY   42  23  46 W17       30.06S
NEWARK         MOSUNNY   45  22  40 W23       30.05S
CHICAGO        MOSUNNY   43  27  53 SW18G24   29.89F
HARTFORD       SUNNY     51  18  27 W23G31    29.92S
BOSTON         MOSUNNY   39  14  36 W21G36    29.89R WCI  29
DALLAS         MOSUNNY   57  31  37 S10       30.19F
PHILADELPHIA   MOSUNNY   44  20  38 NW16G22   30.14S
LOS ANGELES    PTSUNNY   60  37  42 CALM      30.05R
WASHINGTON DC  SUNNY     44  22  41 W6        30.21S


USA.gov is the U.S. government's official web portal to all federal, state and local government web resources and services.